Temperature
19 18 19 19 19 19 19 19 19 19 19 19 19 19 19 18 18 18 18 18 18 18 18 18 18 18 18 18 18 18 18 18 18 18 18 17 17 17 17 17 16 16 17
19 18 19 19 19 19 19 19 19 19 19 19 19 19 18 18 18 18 18 18 18 18 18 18 18 18 18 18 18 18 18 18 17 18 17 17 17 17 17 16 16 16 17
19 18 19 19 19 19 19 19 19 19 19 18 18 18 18 18 18 18 18 18 18 18 18 18 18 18 18 18 18 18 17 17 17 17 17 16 17 17 17 17 17 17 17
19 18 18 19 19 19 19 19 19 19 19 18 18 18 18 18 18 18 18 18 18 18 18 18 18 18 18 18 18 17 17 17 17 17 17 16 16 17 17 17 17 17 16
19 19 18 19 19 19 19 19 19 19 18 18 18 18 18 18 18 18 18 18 18 18 18 18 18 18 18 18 18 17 17 17 17 17 16 16 16 17 17 17 17 17 16
19 19 18 19 19 19 19 19 19 19 18 18 18 18 18 18 18 18 18 18 18 18 18 18 18 18 17 18 17 17 17 17 17 17 16 16 16 17 17 17 17 17 17
20 19 18 19 19 19 19 19 18 18 18 18 18 18 18 18 18 18 18 18 18 18 18 18 18 18 17 18 18 17 17 17 17 16 16 16 17 17 17 17 17 17 17
20 19 18 19 19 19 19 19 18 18 18 18 18 18 18 18 18 18 18 18 18 18 18 18 18 17 17 17 18 18 17 17 17 16 16 16 17 17 17 17 17 17 16
20 19 18 18 19 19 19 19 18 18 18 18 18 18 18 18 18 18 18 18 18 18 18 18 17 17 17 17 17 17 17 17 17 17 16 16 17 17 17 17 17 17 16
19 19 18 18 18 18 18 18 18 18 18 18 18 18 18 18 18 18 18 18 18 18 17 17 17 17 17 17 17 17 17 17 17 17 16 16 17 17 17 17 16 16 16
19 18 18 18 18 18 17 18 18 18 18 18 18 18 17 17 17 17 17 18 18 17 17 17 17 17 17 17 17 17 17 17 17 17 16 17 17 17 17 17 16 16 16
18 18 18 18 18 18 18 18 17 17 17 17 17 17 17 17 17 17 18 18 18 18 17 17 17 17 17 17 17 17 17 17 17 17 16 17 17 17 17 17 16 16 16
18 18 18 18 18 18 18 18 18 18 17 17 17 17 17 17 17 17 17 17 17 17 17 17 17 17 17 17 17 17 17 17 17 17 16 17 17 17 17 17 17 16 16
19 18 18 18 18 18 18 18 18 18 17 17 17 17 17 17 17 17 17 17 17 17 17 17 17 17 17 17 17 17 17 17 17 17 17 17 17 17 17 17 17 16 16
19 19 18 18 18 18 18 18 18 18 18 17 17 17 17 17 17 17 17 17 17 17 17 17 17 17 17 17 17 17 17 17 17 17 17 17 17 17 17 17 17 17 16
19 19 19 19 19 19 19 18 18 18 18 17 17 17 17 17 17 17 17 17 17 17 17 17 17 17 17 17 17 17 17 17 17 17 16 17 17 17 17 17 17 17 17
20 19 19 19 19 19 19 18 18 18 18 18 17 18 18 17 17 17 17 17 17 17 17 17 17 17 17 17 17 17 17 17 17 16 16 16 16 17 17 17 17 17 16
20 20 20 19 19 19 19 19 18 18 18 18 17 17 18 17 17 17 17 17 17 17 17 17 17 17 17 17 17 17 17 17 17 17 17 16 16 16 17 17 17 17 17
20 20 20 20 19 19 19 19 18 18 18 18 17 17 18 18 18 17 17 17 17 17 17 17 17 17 17 17 17 17 17 17 17 17 17 17 16 16 16 17 17 17 17
20 20 20 20 20 19 19 19 18 18 18 18 17 18 18 18 18 17 17 17 17 17 17 17 17 17 17 17 17 17 17 17 17 17 17 17 17 16 17 16 16 17 17
21 21 21 20 20 20 19 19 19 18 18 18 18 18 18 18 18 18 17 17 17 17 17 17 17 17 17 17 17 17 18 17 17 17 17 17 17 17 17 16 17 16 16
21 21 21 20 20 20 20 19 19 18 18 18 18 18 18 18 18 18 18 17 17 17 17 17 17 17 17 17 17 17 18 18 18 18 18 17 17 17 17 17 17 17 17
21 21 21 21 20 20 20 19 19 18 18 18 18 18 18 18 18 18 18 18 17 17 17 17 17 17 17 17 17 17 18 19 19 19 18 18 17 17 17 17 17 17 17
21 21 21 21 21 20 20 19 19 18 18 18 18 18 18 18 18 18 18 18 18 17 17 17 17 17 17 17 17 17 17 18 18 19 18 18 18 17 17 17 17 17 17
21 21 21 21 21 20 20 20 19 19 18 18 18 18 18 18 18 18 18 18 18 18 17 17 17 17 17 17 17 17 17 17 17 18 18 18 18 18 18 17 17 17 17
21 20 20 21 21 20 20 20 19 19 19 18 18 18 18 18 18 18 18 18 18 18 18 18 17 17 17 17 17 17 17 17 17 17 18 18 18 18 18 18 18 17 17
Wind_Speed
10 13 13 13 13 14 15 16 16 17 17 17 17 17 17 17 17 17 17 17 18 18 18 18 18 18 18 19 19 19 19 20 20 20 20 20 19 18 17 17 17 19 19
13 15 14 14 14 14 15 16 16 16 17 16 16 16 17 17 17 17 17 17 18 18 18 18 18 18 18 19 18 18 19 19 19 19 19 19 18 16 15 14 16 18 17
14 15 15 14 14 15 15 16 16 16 16 16 16 16 16 16 17 17 17 17 17 18 18 18 18 18 18 18 18 18 18 18 17 16 15 17 17 16 16 17 18 18 17
14 15 15 15 14 15 15 16 16 15 16 16 16 16 16 16 16 17 17 17 17 17 17 17 17 17 17 17 17 17 17 16 13 10 12 15 16 16 16 17 17 17 16
14 15 16 14 14 14 15 15 15 15 15 15 16 15 16 16 16 16 16 16 16 17 17 17 17 16 16 17 16 16 16 13 9 8 14 14 15 15 15 16 16 16 16
14 15 16 14 14 14 15 15 15 15 15 15 15 15 15 15 15 16 15 15 16 16 16 16 16 16 16 16 15 15 14 10 8 13 12 13 14 14 14 15 15 15 14
14 15 17 14 14 14 14 14 14 15 15 15 15 15 15 15 15 15 15 15 15 15 15 15 15 15 15 14 14 13 10 5 9 12 11 12 14 14 14 14 14 14 14
14 15 17 15 14 14 13 13 14 14 14 14 14 14 14 14 14 14 14 14 14 14 14 14 14 14 14 14 13 12 8 3 10 11 11 13 14 13 13 12 12 13 13
13 13 15 15 14 14 13 13 13 13 13 13 13 14 13 14 14 13 13 13 13 13 13 13 13 13 13 13 12 10 7 1 7 9 10 12 13 12 12 12 12 12 12
12 12 12 12 13 13 13 13 13 13 13 13 13 13 13 13 13 13 13 13 12 12 12 12 12 12 12 11 11 9 6 4 8 9 9 12 12 11 11 11 10 10 10
11 10 11 12 11 11 12 13 13 13 12 12 12 12 11 11 12 11 13 12 11 11 10 11 11 10 10 11 10 8 6 5 7 7 8 12 10 10 10 9 9 9 9
13 12 10 11 11 10 10 11 10 10 11 9 9 9 8 7 7 10 13 11 10 10 10 10 9 9 7 9 10 8 4 5 6 7 9 11 9 8 8 8 8 8 8
14 12 11 10 9 9 8 8 7 7 8 8 8 8 7 7 7 8 9 10 9 9 8 10 8 5 5 5 4 4 4 4 4 6 9 9 8 8 8 8 8 7 7
14 13 11 11 9 7 7 7 7 7 7 7 8 7 7 5 5 6 5 6 7 6 5 5 4 4 4 4 3 3 3 2 3 4 8 9 8 8 8 7 7 7 7
13 13 12 11 10 9 7 6 6 6 6 7 7 6 5 5 5 5 4 4 4 5 6 4 4 4 3 3 3 2 2 2 2 3 7 9 8 8 8 7 7 7 7
14 14 12 12 11 9 7 6 6 6 6 6 6 7 6 4 4 4 5 4 4 3 3 3 4 4 3 2 2 2 2 2 2 2 4 9 10 9 9 8 8 8 8
14 14 13 12 11 10 9 8 7 6 7 6 6 7 6 5 5 4 4 4 4 4 4 4 3 3 3 3 3 3 3 2 2 2 3 4 8 11 11 10 9 9 9
14 14 13 12 12 11 9 8 7 7 6 6 6 7 7 6 6 5 4 4 4 4 4 3 3 3 3 3 3 3 3 3 4 4 5 5 5 6 11 13 11 11 11
14 13 13 12 13 12 10 9 8 6 6 6 6 6 7 7 7 6 4 4 5 4 4 4 3 3 3 3 3 3 4 4 4 5 5 6 6 6 7 12 14 13 13
14 14 13 13 12 12 10 9 7 7 7 7 7 7 7 8 8 7 6 6 6 5 4 4 3 3 4 4 5 3 4 4 5 5 6 7 7 8 8 7 10 13 15
14 14 14 14 13 11 10 10 9 8 8 7 8 9 9 8 8 8 6 6 6 6 5 6 5 5 5 4 4 4 5 6 6 5 7 6 7 8 8 8 9 8 10
16 16 15 15 14 13 11 9 8 7 7 8 7 8 10 10 9 9 8 7 7 6 7 7 6 6 5 4 4 4 4 5 6 7 6 7 7 7 8 9 9 9 10
17 17 15 16 15 15 12 9 7 7 7 8 8 8 10 11 11 10 9 9 7 8 7 7 7 8 6 6 6 5 4 4 3 5 6 6 6 6 7 7 9 10 11
17 16 16 15 15 14 13 12 12 10 10 10 8 8 9 11 12 11 11 10 9 8 8 8 8 7 7 7 6 6 7 6 5 4 5 6 7 7 7 7 8 10 11
16 16 15 15 15 14 14 14 13 12 10 8 8 8 9 9 11 12 12 10 9 9 9 9 7 8 7 8 7 6 7 7 8 7 6 5 6 7 7 8 8 8 8
15 15 15 15 15 15 15 15 15 13 11 10 10 9 8 8 9 11 12 10 10 9 9 9 8 9 8 8 7 7 7 6 7 7 7 7 7 6 6 6 7 7 8
Wind_Direction
126 118 116 117 113 112 114 114 114 114 113 112 111 110 109 107 106 105 105 104 103 102 102 101 102 102 102 102 104 104 104 104 103 103 103 103 103 104 106 112 110 102 103
127 120 120 121 117 114 115 115 116 116 115 114 113 111 110 109 108 107 107 106 105 104 103 102 101 101 103 103 105 106 106 106 107 107 109 106 102 102 99 92 91 102 105
126 124 127 123 122 118 117 116 115 116 116 116 114 112 111 110 109 108 107 106 106 105 104 103 102 102 104 104 105 106 106 107 109 117 124 110 105 101 99 97 100 106 106
128 129 124 123 122 120 119 117 116 115 115 115 115 114 112 111 110 108 107 106 106 106 105 104 103 103 104 105 106 106 106 107 114 135 112 105 106 104 104 105 106 106 106
130 126 122 127 124 122 120 118 117 117 116 116 115 114 113 111 110 109 108 107 107 107 106 105 104 104 106 106 107 107 108 110 126 113 98 102 105 108 108 108 108 107 108
133 129 125 130 126 124 122 120 118 118 116 115 115 115 115 113 112 111 110 109 108 109 108 107 107 107 108 108 108 109 112 128 140 100 105 106 107 110 110 111 109 109 109
134 129 130 130 127 126 123 122 120 118 117 117 117 117 116 115 114 112 111 110 110 110 109 108 109 111 110 109 109 110 113 124 102 102 102 100 105 112 112 111 112 112 111
136 132 129 131 128 128 126 123 120 118 117 116 116 117 117 115 113 112 113 112 112 111 109 109 112 113 113 112 111 111 119 145 110 104 103 103 108 114 114 114 114 114 115
139 135 139 141 137 133 128 125 122 119 117 117 116 117 117 117 115 114 114 115 114 113 112 113 115 116 117 117 116 114 113 77 109 108 107 107 114 117 118 118 117 116 117
144 143 144 142 143 144 138 131 126 124 121 119 118 119 121 122 121 125 124 117 117 115 115 115 116 118 120 122 120 121 138 190 109 113 107 112 122 124 123 122 122 121 120
152 150 150 145 149 148 141 137 139 133 130 134 130 131 147 140 132 138 113 119 121 119 116 116 116 123 132 131 128 143 177 120 108 101 101 113 128 129 130 129 130 129 128
162 161 159 152 154 152 143 145 151 146 142 147 135 143 141 120 122 116 116 123 125 126 123 121 128 148 165 137 143 176 143 117 118 113 110 126 136 137 137 136 136 139 139
166 166 162 158 162 156 150 154 150 143 143 144 139 142 133 138 136 134 138 140 141 151 141 139 161 152 128 113 134 134 110 117 111 116 126 143 152 151 148 149 150 152 151
172 171 167 163 165 166 158 154 158 154 153 149 146 159 147 146 142 137 145 142 150 147 137 149 144 129 123 127 123 117 134 136 115 112 130 153 165 165 164 165 168 168 167
177 176 172 172 169 169 165 172 167 160 157 148 152 157 158 156 155 146 143 148 157 144 157 160 152 143 151 153 153 144 137 117 121 147 138 158 175 180 179 180 183 183 184
183 181 176 179 175 175 175 177 171 168 162 162 163 159 172 165 155 157 161 164 161 168 156 160 160 172 183 163 170 165 187 161 148 179 163 164 181 191 194 196 198 200 200
185 181 180 182 179 182 184 183 181 179 178 175 166 166 179 179 166 180 174 175 171 167 164 187 178 192 198 192 188 190 195 205 190 197 204 189 182 192 201 207 211 213 213
185 183 184 186 183 185 188 190 190 190 186 186 183 176 185 190 185 197 192 185 174 190 192 186 207 204 207 217 209 217 206 201 216 208 211 214 216 202 196 204 216 221 223
187 184 186 191 187 189 188 192 199 194 198 199 194 191 188 197 198 207 207 182 197 204 209 218 203 220 221 231 226 220 232 222 222 225 227 226 223 230 217 192 208 220 225
189 187 189 192 193 190 190 193 201 200 202 210 206 202 200 203 206 213 209 201 215 211 213 222 229 238 245 243 254 245 243 238 234 230 235 231 223 225 229 217 209 214 219
189 189 191 196 193 193 193 196 197 200 204 207 210 209 211 213 211 217 225 203 220 221 224 224 230 227 235 239 254 257 246 238 237 235 237 241 231 228 230 228 234 231 214
191 191 192 196 196 199 198 200 202 207 211 211 212 208 215 217 219 218 223 223 219 223 224 230 234 247 245 232 249 262 257 233 224 225 228 231 236 230 230 228 230 236 248
195 196 196 197 196 202 200 199 198 204 217 213 213 213 214 217 220 227 224 231 228 229 226 227 229 238 247 244 238 249 265 266 259 213 221 228 231 237 238 236 232 232 237
198 197 199 197 199 200 200 204 203 210 217 220 218 215 214 217 221 221 226 228 230 233 229 232 231 236 245 253 244 243 257 283 278 262 226 217 222 232 242 244 242 234 235
196 196 197 196 198 200 204 208 211 219 224 224 222 220 221 220 223 223 223 227 228 234 234 236 230 233 237 247 253 248 246 249 252 263 272 259 238 232 231 236 245 247 241
193 194 194 195 199 200 205 210 213 219 224 226 223 224 220 222 223 224 226 225 227 230 230 230 229 229 240 247 254 252 248 251 252 256 264 265 261 251 240 240 243 244 245
Height
1539 1539 1538 1540 1541 1542 1543 1544 1545 1546 1547 1548 1548 1549 1551 1552 1553 1554 1555 1556 1557 1558 1558 1559 1560 1561 1562 1563 1564 1564 1565 1566 1567 1567 1568 1569 1570 1571 1572 1573 1574 1574 1574
1540 1540 1540 1542 1543 1544 1545 1547 1548 1549 1550 1550 1551 1552 1554 1555 1556 1557 1558 1559 1560 1561 1561 1562 1563 1564 1565 1566 1567 1567 1568 1569 1570 1570 1571 1572 1573 1574 1575 1576 1577 1577 1577
1542 1542 1542 1544 1545 1547 1548 1549 1550 1551 1552 1553 1554 1555 1557 1557 1558 1560 1561 1562 1563 1563 1564 1565 1566 1567 1568 1569 1570 1570 1571 1572 1573 1574 1575 1577 1576 1577 1578 1578 1579 1579 1580
1544 1545 1545 1546 1548 1549 1550 1551 1553 1554 1555 1556 1557 1558 1559 1560 1561 1563 1564 1564 1565 1566 1567 1568 1569 1570 1571 1572 1573 1573 1574 1575 1576 1577 1580 1580 1580 1580 1581 1581 1582 1582 1583
1546 1548 1547 1548 1550 1551 1553 1554 1555 1556 1557 1559 1560 1561 1562 1563 1564 1565 1566 1567 1568 1569 1570 1571 1572 1573 1574 1574 1575 1576 1577 1578 1579 1581 1582 1582 1582 1582 1583 1584 1584 1585 1585
1548 1550 1549 1550 1552 1554 1555 1556 1558 1559 1560 1561 1562 1563 1565 1566 1567 1568 1569 1570 1571 1572 1573 1574 1575 1575 1576 1577 1578 1579 1579 1580 1583 1584 1584 1585 1585 1585 1585 1586 1587 1587 1588
1550 1552 1551 1552 1554 1556 1557 1559 1560 1561 1562 1563 1565 1566 1567 1568 1569 1571 1571 1572 1573 1574 1576 1576 1577 1578 1579 1580 1580 1581 1582 1583 1586 1586 1587 1587 1587 1587 1588 1588 1589 1589 1590
1552 1554 1553 1554 1556 1558 1560 1561 1562 1563 1564 1566 1567 1568 1569 1571 1572 1573 1574 1575 1576 1577 1578 1579 1580 1581 1581 1582 1583 1583 1584 1585 1588 1589 1589 1589 1588 1589 1590 1590 1591 1592 1592
1554 1556 1556 1557 1558 1560 1561 1563 1564 1565 1567 1568 1569 1570 1572 1573 1574 1575 1576 1577 1578 1579 1580 1581 1582 1583 1584 1585 1585 1586 1586 1587 1591 1591 1591 1591 1590 1591 1592 1592 1593 1594 1594
1555 1557 1559 1560 1562 1563 1564 1565 1566 1567 1569 1570 1571 1572 1574 1575 1576 1577 1578 1579 1580 1581 1583 1584 1585 1585 1586 1587 1587 1588 1589 1590 1593 1593 1593 1592 1592 1593 1593 1594 1595 1595 1596
1556 1558 1560 1562 1563 1565 1567 1567 1568 1569 1570 1572 1573 1574 1576 1578 1579 1580 1580 1581 1582 1583 1585 1586 1587 1587 1588 1589 1589 1590 1591 1594 1594 1595 1594 1593 1594 1594 1595 1595 1596 1597 1597
1556 1558 1561 1563 1565 1567 1568 1569 1571 1572 1572 1574 1575 1577 1578 1579 1581 1582 1582 1583 1584 1585 1586 1587 1589 1589 1590 1592 1592 1592 1594 1595 1596 1596 1595 1594 1595 1595 1596 1597 1597 1598 1598
1556 1558 1561 1563 1565 1568 1569 1571 1572 1574 1574 1576 1576 1578 1579 1580 1582 1583 1584 1585 1586 1587 1589 1589 1591 1592 1593 1593 1594 1595 1596 1597 1597 1598 1596 1596 1596 1596 1597 1597 1598 1599 1599
1556 1558 1561 1562 1564 1567 1570 1571 1573 1575 1575 1577 1577 1579 1580 1582 1583 1584 1585 1587 1588 1589 1590 1591 1592 1593 1594 1595 1595 1596 1597 1598 1598 1598 1597 1596 1597 1597 1597 1598 1598 1599 1600
1555 1558 1560 1562 1564 1566 1568 1571 1573 1575 1577 1577 1578 1579 1580 1583 1584 1585 1586 1587 1589 1590 1591 1592 1593 1593 1594 1595 1596 1597 1597 1598 1598 1598 1597 1597 1597 1597 1598 1598 1598 1599 1600
1554 1557 1559 1561 1563 1565 1568 1570 1573 1575 1576 1578 1579 1580 1581 1583 1584 1585 1586 1587 1589 1590 1592 1592 1593 1594 1595 1596 1596 1596 1597 1598 1598 1598 1598 1597 1597 1597 1597 1598 1598 1599 1599
1553 1556 1558 1561 1563 1565 1568 1570 1573 1575 1576 1578 1579 1579 1580 1583 1584 1585 1587 1588 1589 1590 1591 1592 1593 1594 1595 1595 1596 1596 1597 1597 1598 1598 1598 1598 1597 1597 1597 1597 1597 1598 1598
1552 1555 1557 1560 1562 1565 1567 1569 1572 1575 1576 1577 1579 1580 1580 1582 1583 1584 1587 1588 1589 1590 1591 1592 1593 1594 1595 1595 1596 1596 1596 1596 1596 1597 1597 1597 1597 1597 1596 1596 1596 1597 1597
1551 1553 1556 1559 1561 1564 1566 1568 1571 1572 1574 1576 1578 1579 1580 1581 1583 1584 1586 1587 1588 1590 1591 1592 1593 1594 1594 1595 1595 1594 1595 1595 1595 1596 1596 1596 1596 1596 1596 1595 1595 1595 1595
1548 1551 1554 1557 1560 1562 1565 1567 1569 1571 1572 1575 1576 1578 1579 1580 1582 1584 1585 1586 1587 1589 1590 1591 1591 1592 1592 1593 1594 1594 1593 1594 1594 1594 1594 1594 1594 1594 1595 1595 1594 1594 1594
1546 1548 1551 1555 1557 1560 1562 1565 1567 1569 1571 1573 1574 1576 1578 1579 1581 1582 1584 1584 1586 1587 1588 1589 1590 1591 1591 1592 1592 1592 1592 1591 1591 1591 1592 1592 1593 1593 1592 1592 1593 1593 1592
1542 1545 1548 1551 1554 1557 1560 1562 1565 1567 1569 1571 1572 1573 1575 1577 1579 1580 1581 1583 1584 1585 1586 1587 1588 1589 1590 1590 1591 1590 1590 1591 1589 1589 1589 1589 1590 1590 1590 1590 1590 1589 1590
1539 1542 1545 1548 1551 1554 1557 1560 1562 1564 1566 1568 1569 1571 1573 1574 1576 1577 1579 1580 1581 1582 1584 1584 1585 1586 1587 1588 1588 1589 1589 1587 1587 1587 1586 1587 1586 1587 1587 1587 1587 1587 1587
1535 1539 1542 1545 1548 1551 1554 1556 1559 1561 1563 1565 1567 1569 1570 1571 1573 1574 1576 1577 1578 1579 1580 1581 1583 1584 1584 1585 1586 1585 1586 1586 1586 1584 1584 1584 1584 1583 1584 1584 1585 1584 1584
1532 1535 1538 1541 1545 1548 1551 1553 1555 1558 1561 1563 1564 1565 1567 1568 1569 1571 1572 1573 1574 1576 1577 1578 1579 1580 1581 1582 1583 1583 1582 1582 1583 1583 1582 1582 1582 1581 1581 1581 1581 1581 1581
1529 1532 1535 1537 1540 1544 1547 1549 1551 1554 1557 1559 1561 1562 1563 1565 1566 1567 1568 1569 1570 1572 1573 1574 1575 1576 1577 1578 1578 1579 1579 1579 1579 1579 1579 1578 1578 1578 1578 1577 1578 1578 1577